Lawrence, MA

6:49 AM EDT on October 21, 2017 (GMT -0400)
Lawrence Municipal

Weather History for KLWM - October, 2012

Change the Weather History Date:

Monday, October 1, 2012

  Actual Average Record
Temperature  
Mean Temperature 57 °F -  
Max Temperature 66 °F 67 °F 87 °F (1927)
Min Temperature 50 °F 45 °F 31 °F (1991)
Degree Days  
Heating Degree Days 8    
Growing Degree Days 7 (Base 50)    
Moisture  
Dew Point 49 °F    
Average Humidity 74    
Maximum Humidity 89    
Minimum Humidity 61    
Precipitation  
Precipitation 0.00 in - - ()
Sea Level Pressure  
Sea Level Pressure 29.78 in    
Wind  
Wind Speed 9 mph (SW)    
Max Wind Speed 18 mph    
Max Gust Speed 24 mph    
Visibility 10 miles    
Events      
Averages and records for this station are not official NWS values.
T = Trace of Precipitation, MM = Missing Value Source: NWS Daily Summary

Daily Weather History Graph

Daily Weather History Graph

Search for Another Location

Airport or City:

Trip Planner

Search our weather history database for the weather conditions in past years. The results will help you decide how hot, cold, wet, or windy it might be!

Date:

Astronomy

Oct. 01, 2012 Rise Set
Actual Time 6:42 AM EDT 6:25 PM EDT
Civil Twilight 6:14 AM EDT 6:53 PM EDT
Nautical Twilight 5:41 AM EDT 7:25 PM EDT
Astronomical Twilight 5:08 AM EDT 7:58 PM EDT
Moon 6:56 PM EDT (10/1) 8:11 AM EDT (10/1)
Length of Visible Light 12h 39m
Length of Day
11h 42m
Full, 98% of the Moon is Illuminated
Oct 1
Full
Oct 8
Last Quarter
Oct 15
New
Oct 21
First Quarter
Oct 29
Full

Hourly Weather History & Observations

Time (EDT) Temp. Dew Point Humidity Pressure Visibility Wind Dir Wind Speed Gust Speed Precip Events Conditions
12:54 AM 52.0 °F 48.0 °F 86% 29.72 in 10.0 mi SSW 5.8 mph - N/A   Clear
1:54 AM 52.0 °F 48.0 °F 86% 29.72 in 10.0 mi SSW 8.1 mph - N/A   Clear
2:54 AM 51.1 °F 48.0 °F 89% 29.70 in 10.0 mi SSW 5.8 mph - N/A   Clear
3:54 AM 50.0 °F 46.9 °F 89% 29.70 in 10.0 mi SSW 5.8 mph - N/A   Clear
4:54 AM 50.0 °F 46.0 °F 86% 29.71 in 10.0 mi SSW 5.8 mph - N/A   Clear
5:54 AM 50.0 °F 46.0 °F 86% 29.71 in 10.0 mi SSW 9.2 mph - N/A   Clear
6:54 AM 51.8 °F 46.4 °F 82% 29.72 in 10.0 mi SSW 9.2 mph - N/A   Partly Cloudy
7:54 AM 52.0 °F 46.9 °F 83% 29.72 in 10.0 mi SW 8.1 mph - N/A   Overcast
8:54 AM 55.4 °F 48.2 °F 77% 29.71 in 10.0 mi SSW 13.8 mph 19.6 mph N/A   Scattered Clouds
9:54 AM 60.1 °F 48.0 °F 64% 29.72 in 10.0 mi WSW 16.1 mph 24.2 mph N/A   Mostly Cloudy
10:54 AM 60.1 °F 48.9 °F 67% 29.73 in 10.0 mi WSW 18.4 mph 21.9 mph N/A   Overcast
11:54 AM 61.0 °F 48.9 °F 64% 29.74 in 10.0 mi WSW 12.7 mph 24.2 mph N/A   Overcast
12:54 PM 61.0 °F 48.9 °F 64% 29.75 in 10.0 mi WSW 12.7 mph 20.7 mph N/A   Overcast
1:54 PM 63.0 °F 50.0 °F 63% 29.75 in 10.0 mi West 13.8 mph 20.7 mph N/A   Overcast
2:54 PM 64.9 °F 51.1 °F 61% 29.76 in 10.0 mi West 15.0 mph 23.0 mph N/A   Overcast
3:54 PM 64.9 °F 51.1 °F 61% 29.78 in 10.0 mi WSW 12.7 mph 21.9 mph N/A   Overcast
4:54 PM 64.4 °F 51.8 °F 64% 29.81 in 10.0 mi WSW 10.4 mph - N/A   Overcast
5:54 PM 64.0 °F 52.0 °F 65% 29.84 in 10.0 mi WSW 11.5 mph 19.6 mph N/A   Overcast
6:54 PM 64.4 °F 51.8 °F 64% 29.86 in 10.0 mi WSW 10.4 mph 18.4 mph N/A   Overcast
7:54 PM 62.1 °F 52.0 °F 70% 29.88 in 10.0 mi SSW 5.8 mph - N/A   Overcast
8:54 PM 61.0 °F 52.0 °F 72% 29.91 in 10.0 mi SW 8.1 mph - N/A   Mostly Cloudy
9:54 PM 60.1 °F 51.1 °F 72% 29.93 in 10.0 mi SW 5.8 mph - N/A   Overcast
10:54 PM 59.0 °F 51.1 °F 75% 29.94 in 10.0 mi SSW 5.8 mph - N/A   Scattered Clouds
11:54 PM 57.0 °F 51.1 °F 81% 29.94 in 10.0 mi SW 4.6 mph - N/A   Clear